Погода в Печере

Украина / Винницкая область     48°51′18″N   28°43′12″E
темп.,
°C
ветер,
м/с
пор.,
м/с
влажн.,
%
обл.,
%
осадки,
мм/ч
давл.,
гПа
погр.,
м
15 апреля, чт
чт1500:00+9зсз1173100 0.0 101310
03:00+8с2277100 0.0 101246
06:00+7с1289100 1.1 101282
09:00+8с3583100 1.4 1012335
12:00+11сз2266100 0.4 1012798
15:00+13сз5459100 1.5 10111205
18:00+10сз797699 0.7 1012934
21:00+7сз6984100 0.7 1013606
16 апреля, пт
пт1600:00+5сз5987100 0.0 1013426
03:00+4зсз5986100 0.0 1013491
06:00+3зсз5989100 0.1 1013549
09:00+3з51097100 0.1 1014461
12:00+3з5998100 0.4 1015410
15:00+2з51098100 2.2 1016408
18:00+4з3795100 1.3 1017685
21:00+3з359286 1.4 1018113
17 апреля, сб
сб1700:00+4з4108877 0.0 1019728
03:00+3зюз4990100 0.0 1019496
06:00+3зюз51095100 0.0 1020719
09:00+4з5994100 0.1 1020594
12:00+5з4591100 0.1 1021507
15:00+7сз238089 0.1 1021691
18:00+8с327898 0.0 1021305
21:00+5ссв3590100 0.0 1021146
18 апреля, вс
вс1800:00+4ссв3492100 0.0 102185
03:00+3вюв349437 0.0 102177
06:00+3всв239265 0.0 102057
09:00+6в2378100 0.0 1020327
12:00+10юв226298 0.0 1020863
15:00+12в2250100 0.1 10191692
18:00+11в2257100 0.0 101854
21:00+9всв3566100 0.0 1019110
19 апреля, пн
пн1900:00+9всв3670100 0.0 1019140
03:00+8в2470100 0.0 101876
06:00+8всв3573100 0.0 1018120
09:00+9всв467174 0.0 1018408
12:00+12в675851 0.0 10161337
15:00+13всв5756100 0.1 10151600
18:00+12всв71063100 0.0 10131022
21:00+9всв81572100 0.1 1011788